Weather History for KMXO - January, 2014

Change the Weather History Date:

Friday, January 3, 2014

  Actual Average Record
Temperature  
Mean Temperature 0 °F -  
Max Temperature 23 °F 29 °F 51 °F (1998)
Min Temperature -20 °F 14 °F -20 °F (2014)
Degree Days  
Heating Degree Days 64    
Moisture  
Dew Point -3 °F    
Average Humidity 73    
Maximum Humidity 79    
Minimum Humidity 63    
Precipitation  
Precipitation 0.00 in - - ()
Sea Level Pressure  
Sea Level Pressure 30.11 in    
Wind  
Wind Speed 8 mph (SSE)    
Max Wind Speed 25 mph    
Max Gust Speed 33 mph    
Visibility 10 miles    
Events      
Averages and records for this station are not official NWS values.
T = Trace of Precipitation, MM = Missing Value Source: NWS Daily Summary

Daily Weather History Graph

Daily Weather History Graph

Search for Another Location

Airport or City:

Trip Planner

Search our weather history database for the weather conditions in past years. The results will help you decide how hot, cold, wet, or windy it might be!

Date:

Astronomy

Jan. 03, 2014 Rise Set
Actual Time 7:33 AM CST 4:45 PM CST
Civil Twilight 7:01 AM CST 5:16 PM CST
Nautical Twilight 6:26 AM CST 5:51 PM CST
Astronomical Twilight 5:52 AM CST 6:25 PM CST
Moon 8:56 AM CST (1/3) 7:58 PM CST (1/3)
Length of Visible Light 10h 14m
Length of Day
9h 11m
Waxing Crescent, 8% of the Moon is Illuminated
Jan 3
Waxing Crescent
Jan 7
First Quarter
Jan 15
Full
Jan 23
Last Quarter
Jan 30
New

Hourly Weather History & Observations

Time (CST) Temp. Windchill Dew Point Humidity Pressure Visibility Wind Dir Wind Speed Gust Speed Precip Events Conditions
12:15 AM -16.6 °F - -23.8 °F 70% 30.41 in 10.0 mi Calm Calm - N/A   Clear
12:35 AM -18.4 °F - -23.8 °F 76% 30.41 in 10.0 mi Calm Calm - N/A   Clear
12:55 AM -16.6 °F - -22.0 °F 76% 30.41 in 10.0 mi Calm Calm - N/A   Clear
1:15 AM -16.6 °F - -22.0 °F 76% 30.41 in - Calm Calm - N/A   Clear
1:35 AM -14.8 °F - -20.2 °F 77% 30.41 in 10.0 mi Calm Calm - N/A   Clear
1:55 AM -16.6 °F - -22.0 °F 76% 30.40 in 10.0 mi Calm Calm - N/A   Clear
2:15 AM -18.4 °F - -23.8 °F 76% 30.40 in 10.0 mi Calm Calm - N/A   Clear
2:35 AM -16.6 °F - -23.8 °F 70% 30.41 in 10.0 mi Calm Calm - N/A   Clear
2:55 AM -18.4 °F - -25.6 °F 70% 30.41 in 10.0 mi Calm Calm - N/A   Clear
3:15 AM -18.4 °F - -27.4 °F 63% 30.41 in 10.0 mi Calm Calm - N/A   Clear
3:35 AM -18.4 °F - -25.6 °F 70% 30.41 in 10.0 mi Calm Calm - N/A   Clear
3:55 AM -18.4 °F - -25.6 °F 70% 30.40 in 10.0 mi Calm Calm - N/A   Clear
4:15 AM -18.4 °F - -25.6 °F 70% 30.39 in 10.0 mi Calm Calm - N/A   Clear
4:35 AM -16.6 °F - -23.8 °F 70% 30.38 in 10.0 mi Calm Calm - N/A   Clear
4:55 AM -18.4 °F - -25.6 °F 70% 30.36 in 10.0 mi Calm Calm - N/A   Clear
5:15 AM -18.4 °F - -25.6 °F 70% 30.36 in 10.0 mi Calm Calm - N/A   Clear
5:35 AM -20.2 °F - -27.4 °F 69% 30.35 in 10.0 mi Calm Calm - N/A   Clear
5:55 AM -18.4 °F - -25.6 °F 70% 30.35 in 10.0 mi Calm Calm - N/A   Mostly Cloudy
6:15 AM -14.8 °F - -22.0 °F 70% 30.34 in 10.0 mi Calm Calm - N/A   Overcast
6:35 AM -13.0 °F - -18.4 °F 77% 30.34 in 10.0 mi Calm Calm - N/A   Overcast
6:55 AM -5.8 °F -19.9 °F -11.2 °F 77% 30.33 in 10.0 mi SSE 6.9 mph - N/A   Overcast
7:15 AM -2.2 °F -18.9 °F -7.6 °F 78% 30.31 in 10.0 mi SSE 10.4 mph - N/A   Overcast
7:35 AM -0.4 °F -17.6 °F -5.8 °F 78% 30.32 in 10.0 mi South 11.5 mph - N/A   Scattered Clouds
7:55 AM -0.4 °F -19.9 °F -5.8 °F 78% 30.31 in 10.0 mi South 15.0 mph - N/A   Mostly Cloudy
8:15 AM -0.4 °F -18.4 °F -5.8 °F 78% 30.31 in 10.0 mi South 12.7 mph - N/A   Overcast
8:35 AM -0.4 °F -16.7 °F -5.8 °F 78% 30.30 in 10.0 mi South 10.4 mph - N/A   Scattered Clouds
8:55 AM 1.4 °F -16.9 °F -4.0 °F 78% 30.28 in 10.0 mi South 13.8 mph - N/A   Partly Cloudy
9:15 AM 3.2 °F -12.2 °F -2.2 °F 78% 30.28 in 10.0 mi South 10.4 mph 18.4 mph N/A   Partly Cloudy
9:35 AM 3.2 °F -16.5 °F -2.2 °F 78% 30.27 in 10.0 mi South 17.3 mph - N/A   Scattered Clouds
9:55 AM 5.0 °F -12.3 °F -2.2 °F 72% 30.27 in 10.0 mi South 13.8 mph 19.6 mph N/A   Partly Cloudy
10:15 AM 5.0 °F -12.3 °F -2.2 °F 72% 30.26 in 10.0 mi SSE 13.8 mph 23.0 mph N/A   Scattered Clouds
10:35 AM 5.0 °F -14.2 °F -0.4 °F 78% 30.23 in 10.0 mi South 17.3 mph - N/A   Scattered Clouds
10:55 AM 6.8 °F -11.8 °F -0.4 °F 72% 30.22 in 10.0 mi South 17.3 mph - N/A   Mostly Cloudy
11:15 AM 6.8 °F -12.9 °F -0.4 °F 72% 30.19 in 9.0 mi South 19.6 mph - N/A   Overcast
11:35 AM 8.6 °F -8.9 °F 1.4 °F 73% 30.16 in 10.0 mi SSE 16.1 mph 25.3 mph N/A   Overcast
11:55 AM 8.6 °F -8.9 °F 1.4 °F 73% 30.15 in 10.0 mi SSE 16.1 mph - N/A   Scattered Clouds
12:15 PM 8.6 °F -10.0 °F 1.4 °F 73% 30.13 in 10.0 mi SSE 18.4 mph 24.2 mph N/A   Mostly Cloudy
12:35 PM 8.6 °F -10.5 °F 1.4 °F 73% 30.10 in 9.0 mi SSE 19.6 mph 26.5 mph N/A   Mostly Cloudy
12:55 PM 10.4 °F -7.7 °F 3.2 °F 73% 30.09 in 10.0 mi SSE 18.4 mph 24.2 mph N/A   Mostly Cloudy
1:15 PM 10.4 °F -8.6 °F 3.2 °F 73% 30.07 in 8.0 mi SSE 20.7 mph 27.6 mph N/A   Mostly Cloudy
1:35 PM 12.2 °F -6.7 °F 3.2 °F 67% 30.04 in 10.0 mi SSE 21.9 mph - N/A   Clear
1:55 PM 12.2 °F -6.3 °F 5.0 °F 73% 30.01 in 8.0 mi SSE 20.7 mph - N/A   Clear
2:15 PM 12.2 °F -5.8 °F 5.0 °F 73% 29.99 in 9.0 mi SSE 19.6 mph 27.6 mph N/A   Clear
2:35 PM 14.0 °F -4.7 °F 5.0 °F 67% 29.97 in 7.0 mi SSE 23.0 mph 29.9 mph N/A   Clear
2:55 PM 14.0 °F -5.1 °F 6.8 °F 73% 29.94 in 4.0 mi SSE 24.2 mph 33.4 mph N/A   Haze
3:15 PM 14.0 °F -4.7 °F 6.8 °F 73% 29.94 in 7.0 mi SSE 23.0 mph 32.2 mph N/A   Clear
3:35 PM 15.8 °F -2.3 °F 6.8 °F 68% 29.92 in 8.0 mi SSE 23.0 mph 31.1 mph N/A   Clear
3:55 PM 15.8 °F -3.1 °F 6.8 °F 68% 29.91 in 8.0 mi SSE 25.3 mph 32.2 mph N/A   Clear
4:15 PM 15.8 °F -2.3 °F 8.6 °F 73% 29.90 in - SSE 23.0 mph - N/A   Clear
4:35 PM 15.8 °F -1.9 °F 8.6 °F 73% 29.89 in 10.0 mi SSE 21.9 mph - N/A   Clear
4:55 PM 15.8 °F -0.6 °F 8.6 °F 73% 29.88 in 10.0 mi SSE 18.4 mph 25.3 mph N/A   Clear
5:15 PM - - - N/A% - - North - - N/A   Unknown
5:35 PM 15.8 °F -1.1 °F 8.6 °F 73% 29.86 in 10.0 mi SSE 19.6 mph 26.5 mph N/A   Unknown
5:55 PM 15.8 °F -0.6 °F 8.6 °F 73% 29.85 in 10.0 mi SSE 18.4 mph - N/A   Clear
6:15 PM 15.8 °F -1.1 °F 10.4 °F 79% 29.83 in - SSE 19.6 mph 25.3 mph N/A   Clear
6:35 PM 15.8 °F -0.2 °F 10.4 °F 79% 29.84 in 10.0 mi SSE 17.3 mph 24.2 mph N/A   Clear
6:55 PM 17.6 °F 0.9 °F 10.4 °F 73% 29.83 in 10.0 mi SSE 20.7 mph - N/A   Clear
7:15 PM 17.6 °F 0.9 °F 10.4 °F 73% 29.82 in 10.0 mi SSE 20.7 mph 27.6 mph N/A   Clear
7:35 PM 17.6 °F 2.2 °F 10.4 °F 73% 29.82 in 10.0 mi SSE 17.3 mph 24.2 mph N/A   Clear
7:55 PM 17.6 °F 3.2 °F 10.4 °F 73% 29.81 in 10.0 mi SSE 15.0 mph - N/A   Clear
8:15 PM 17.6 °F 3.7 °F 10.4 °F 73% 29.81 in 10.0 mi South 13.8 mph - N/A   Clear
8:35 PM 17.6 °F 3.2 °F 10.4 °F 73% 29.80 in 10.0 mi SSE 15.0 mph - N/A   Clear
8:55 PM 17.6 °F 4.3 °F 10.4 °F 73% 29.79 in 10.0 mi South 12.7 mph 21.9 mph N/A   Clear
9:15 PM 19.4 °F 5.5 °F 10.4 °F 68% 29.78 in 10.0 mi South 15.0 mph - N/A   Clear
9:35 PM 19.4 °F 6.0 °F 10.4 °F 68% 29.77 in 10.0 mi South 13.8 mph - N/A   Clear
9:55 PM 19.4 °F 5.5 °F 12.2 °F 74% 29.76 in 10.0 mi South 15.0 mph 21.9 mph N/A   Clear
10:15 PM 19.4 °F 5.0 °F 12.2 °F 74% 29.75 in 10.0 mi SSE 16.1 mph - N/A   Clear
10:35 PM 19.4 °F 5.5 °F 12.2 °F 74% 29.75 in 10.0 mi SSE 15.0 mph 23.0 mph N/A   Clear
10:55 PM 19.4 °F 5.5 °F 12.2 °F 74% 29.73 in 10.0 mi South 15.0 mph - N/A   Clear
11:15 PM 21.2 °F 7.8 °F 12.2 °F 68% 29.73 in 10.0 mi South 15.0 mph 26.5 mph N/A   Clear
11:35 PM 21.2 °F 8.9 °F 14.0 °F 74% 29.73 in 10.0 mi South 12.7 mph 19.6 mph N/A   Clear
11:55 PM 23.0 °F 8.7 °F 14.0 °F 68% 29.73 in 10.0 mi South 18.4 mph 27.6 mph N/A   Clear